[[[{"header":{"parameterUnit":"kt","parameterCategory":2,"dx":1,"dy":1,"la1":30.253999710083008,"la2":30.299108505249023,"lo1":-89.0895004272461,"lo2":-89.04439544677734,"nx":28,"ny":28,"refTime":"2022-10-29T21:00:00:Z","depth":0,"parameterNumber":1,"parameterNumberName":"U-component_of_WINDS"},"data":[0.1393,0.1351,0.1342,0.1291,0.1274,0.1238,0.1222,0.1201,0.1182,0.1137,0.111,0.1097,0.1075,0.104,0.1011,0.1006,0.0995,0.0986,0.0982,0.1027,0.1033,0.1039,0.1049,0.0983,0.0983,0.0937,0.0936,0.0936,0.1427,0.1411,0.1381,0.1346,0.132,0.1323,0.1296,0.1275,0.1242,0.1217,0.119,0.115,0.1118,0.1098,0.1065,0.1046,0.1046,0.1038,0.104,0.1037,0.1084,0.1095,0.1038,0.1038,0.1038,0.1038,0.1038,0.1038,0.1488,0.1463,0.1438,0.1405,0.1385,0.1362,0.1337,0.1321,0.1292,0.1257,0.1252,0.1215,0.1189,0.1145,0.1129,0.11,0.1107,0.1096,0.1094,0.1091,0.109,0.1161,0.1093,0.1094,0.1094,0.1094,0.1094,0,0.1531,0.1526,0.1496,0.1464,0.144,0.1414,0.1389,0.1373,0.1359,0.1335,0.13,0.1279,0.1236,0.1203,0.117,0.1155,0.1157,0.1156,0.1148,0.1151,0.1158,0.1155,0.1235,0.1158,0.1159,0.1159,0.1159,0.116,0.1594,0.1565,0.1534,0.1514,0.1499,0.1467,0.1446,0.1436,0.1415,0.1383,0.1361,0.1327,0.1299,0.1244,0.1228,0.1196,0.1197,0.1169,0.1192,0.1196,0.1199,0.1201,0.1199,0.1165,0.1164,0.1164,0.1163,0,0.163,0.1617,0.1569,0.1541,0.1533,0.1504,0.148,0.1454,0.1442,0.1405,0.1396,0.1378,0.1343,0.1331,0.1289,0.1284,0.1236,0.1237,0.1246,0.1246,0.122,0.1223,0.1137,0.1125,0.1191,0.1191,0.119,0,0.1679,0.1642,0.1624,0.1597,0.1555,0.1546,0.1505,0.1491,0.1469,0.144,0.1439,0.1412,0.14,0.1371,0.1363,0.1322,0.1313,0.1308,0.1306,0.1309,0.131,0.1299,0.1303,0.1302,0.1303,0.1303,0.1303,0,0.1739,0.1685,0.1641,0.1627,0.1593,0.1573,0.1558,0.1533,0.1513,0.1485,0.1472,0.144,0.1422,0.1398,0.1388,0.1405,0.1337,0.1358,0.1331,0.1331,0.1318,0.1319,0.1244,0.1304,0.1304,0.1304,0.1304,0,0.1778,0.1749,0.1687,0.166,0.1646,0.1617,0.1585,0.1557,0.1531,0.1524,0.1501,0.15,0.1462,0.1484,0.1432,0.1457,0.144,0.143,0.1428,0.1425,0.1451,0.1412,0.134,0.1333,0.1421,0.1422,0.1423,0,0.1851,0.1785,0.1777,0.1718,0.1686,0.1689,0.1656,0.1632,0.1621,0.1592,0.1579,0.1546,0.156,0.1548,0.1523,0.1509,0.1477,0.1513,0.1473,0.1472,0.1482,0.1415,0.1408,0.1357,0.1435,0.1434,0.1433,0,0.1907,0.1866,0.1856,0.184,0.1807,0.178,0.1742,0.1707,0.1689,0.1662,0.1631,0.1584,0.1593,0.1573,0.1569,0.1544,0.1498,0.1557,0.1556,0.1548,0.144,0.1434,0.1425,0.1501,0.1499,0.1498,0.1442,0,0.1971,0.1935,0.1907,0.1871,0.1847,0.1809,0.1797,0.1774,0.1772,0.1761,0.1714,0.1692,0.1657,0.1643,0.1641,0.1588,0.1595,0.1605,0.1627,0.1582,0.1564,0.1556,0.1656,0.1656,0.1657,0.1657,0,0,0.2045,0.1995,0.1987,0.195,0.1931,0.1934,0.1895,0.1876,0.1838,0.1824,0.1836,0.1767,0.1748,0.1693,0.1678,0.1663,0.1653,0.1669,0.1603,0.1597,0.1592,0.1572,0.1564,0.1658,0.1658,0.1658,0.1658,0,0.2067,0.2047,0.2008,0.1988,0.1958,0.1948,0.1938,0.191,0.1901,0.1854,0.1859,0.1829,0.1773,0.1754,0.1736,0.1675,0.168,0.1665,0.1637,0.1608,0.1602,0.1596,0.1575,0.1568,0.166,0.1659,0.1659,0,0.2121,0.2099,0.2079,0.2033,0.2014,0.1981,0.2,0.1964,0.1939,0.1945,0.1899,0.1885,0.1857,0.1806,0.1783,0.1793,0.1706,0.1731,0.1727,0.1725,0.1697,0.1689,0.1682,0.1775,0.1776,0.1776,0,0,0.2141,0.2108,0.2082,0.2037,0.2025,0.2009,0.199,0.1986,0.1961,0.1951,0.1933,0.1908,0.1876,0.1855,0.1824,0.1769,0.1763,0.1745,0.174,0.1736,0.1731,0.1702,0.1694,0.1778,0.1778,0.1778,0,0,0.2151,0.2119,0.2122,0.2068,0.2044,0.2016,0.1989,0.1992,0.1963,0.1966,0.1959,0.1952,0.1904,0.189,0.1915,0.1832,0.1854,0.1847,0.1843,0.1836,0.1831,0.1836,0.1932,0,0,0,0,0,0.2166,0.2123,0.2126,0.2115,0.2058,0.2014,0.2007,0.2,0.2016,0.1995,0.198,0.1987,0.1902,0.1924,0.1913,0.1886,0.18,0.1796,0.1793,0.1774,0.1767,0.1761,0,0,0,0,0,0,0.2162,0.2149,0.2127,0.2098,0.2085,0.2016,0.2041,0.2038,0.2018,0.202,0.199,0.1986,0.198,0.1929,0.1919,0.1894,0.1936,0.1799,0.1796,0.1793,0.1772,0.1766,0.1761,0,0,0,0,0,0.2158,0.2148,0.2058,0.2098,0.2087,0.2068,0.2043,0.204,0.2025,0.2002,0.1999,0.2021,0.1979,0.1971,0.1923,0.1898,0.1942,0.1939,0.1797,0.1794,0.1792,0.1769,0,0,0,0,0,0,0.2156,0.2145,0.2055,0.2051,0.2114,0.2071,0.2064,0.2042,0.2008,0.2005,0.2034,0.2036,0.1978,0.1972,0.1965,0.19,0.1947,0.1944,0.1942,0.1795,0.1793,0.1791,0,0,0,0,0,0,0.2151,0.2142,0.2053,0.2074,0.2072,0.2075,0.2069,0.2027,0.2008,0.2042,0.2042,0.2035,0.1988,0.1972,0.1967,0.1902,0.1951,0.1948,0.1946,0.1944,0.1793,0.1791,0,0,0,0,0,0,0.2147,0.214,0.2075,0.2073,0.2072,0.2031,0.2038,0.198,0.2025,0.2043,0.2029,0.2031,0.1988,0.1983,0.1969,0.1906,0.1903,0.1951,0.1949,0.1947,0.1946,0,0,0,0,0,0,0,0.2144,0.2197,0.2077,0.2073,0.2072,0.2017,0.2016,0.2015,0.2025,0.2027,0.2029,0.203,0.1971,0.1967,0.1963,0.1909,0,0,0.1952,0.195,0,0,0,0,0,0,0,0,0.22,0.2198,0.2077,0.2076,0.2075,0.2017,0.2016,0.2016,0.2026,0.2027,0.2028,0.2029,0.197,0.1967,0.1964,0,0,0,0,0,0,0,0,0,0,0,0,0,0,0,0.2077,0.2076,0,0.2017,0.2017,0.2016,0.2026,0.2027,0.2028,0.2029,0.1969,0.1967,0.1964,0,0,0,0,0,0,0,0,0,0,0,0,0,0,0,0,0,0,0,0,0,0,0,0,0,0,0,0,0,0,0,0,0,0,0,0,0,0,0,0,0,0,0,0,0,0,0,0,0,0,0,0,0,0,0,0,0,0,0,0,0,0,0,0,0,0,0,0,0]}],[{"header":{"parameterUnit":"kt","parameterCategory":2,"dx":1,"dy":1,"la1":30.253999710083008,"la2":30.299108505249023,"lo1":-89.0895004272461,"lo2":-89.04439544677734,"nx":28,"ny":28,"refTime":"2022-10-29T21:00:00:Z","depth":0,"parameterNumber":2,"parameterNumberName":"V-component_of_WINDS"},"data":[2.4857,2.4794,2.4814,2.475,2.4757,2.4716,2.4708,2.4699,2.4696,2.4648,2.4624,2.4636,2.464,2.4614,2.4587,2.4593,2.4579,2.4543,2.4555,2.4702,2.4723,2.4744,2.476,2.454,2.454,2.4399,2.4397,2.4396,2.4963,2.497,2.4943,2.4929,2.4905,2.4953,2.4945,2.4921,2.4883,2.4879,2.4857,2.4816,2.4785,2.4801,2.4774,2.4743,2.4762,2.4734,2.4735,2.4735,2.4894,2.4911,2.4719,2.4719,2.4719,2.4719,2.4719,2.4719,2.5162,2.5124,2.5128,2.5098,2.5097,2.5087,2.5053,2.507,2.5042,2.5018,2.5046,2.5002,2.5001,2.4978,2.4974,2.4939,2.4973,2.4947,2.494,2.4933,2.4921,2.512,2.4936,2.4936,2.4937,2.4937,2.4938,0,2.5313,2.5333,2.5308,2.5289,2.5268,2.5255,2.5245,2.5225,2.5271,2.5246,2.5211,2.5193,2.5158,2.5126,2.5105,2.5106,2.5149,2.5156,2.5138,2.5122,2.5111,2.5114,2.537,2.516,2.5162,2.5164,2.5165,2.5166,2.5513,2.5466,2.548,2.546,2.546,2.5426,2.541,2.5455,2.5435,2.5429,2.5392,2.5361,2.5338,2.5277,2.5294,2.5267,2.5287,2.5204,2.5282,2.527,2.5282,2.5284,2.5278,2.5187,2.5184,2.5182,2.518,0,2.5623,2.5656,2.559,2.5609,2.5612,2.556,2.5574,2.5537,2.5557,2.5508,2.5499,2.5529,2.5493,2.5524,2.5488,2.5505,2.5415,2.5437,2.5416,2.5421,2.5349,2.5354,2.5114,2.5083,2.5315,2.5313,2.5311,0,2.5805,2.5742,2.5795,2.5755,2.5686,2.5733,2.5663,2.5673,2.5674,2.5636,2.5692,2.5655,2.5701,2.5667,2.5692,2.5625,2.5619,2.5627,2.5634,2.562,2.5619,2.5607,2.5616,2.5654,2.5655,2.5656,2.5657,0,2.5971,2.5927,2.5863,2.5857,2.587,2.5838,2.5841,2.5843,2.5826,2.5809,2.5798,2.5774,2.576,2.574,2.5772,2.5824,2.5692,2.5769,2.5699,2.5698,2.5666,2.5667,2.5449,2.5659,2.5659,2.566,2.566,0,2.6123,2.6108,2.601,2.6021,2.6007,2.5965,2.5946,2.5917,2.5914,2.5928,2.5914,2.5955,2.5901,2.5975,2.59,2.5958,2.5941,2.5945,2.594,2.5934,2.6016,2.5885,2.5677,2.5655,2.5933,2.5935,2.5937,0,2.6303,2.6214,2.6255,2.616,2.6123,2.619,2.6143,2.6139,2.6154,2.6123,2.6139,2.6103,2.6166,2.6158,2.6118,2.6131,2.6056,2.6143,2.6092,2.609,2.6089,2.5899,2.5859,2.572,2.5967,2.5963,2.5961,0,2.6447,2.6465,2.6445,2.6441,2.6445,2.6414,2.6361,2.6337,2.6314,2.6304,2.6259,2.621,2.6254,2.6242,2.6271,2.6227,2.6108,2.628,2.6281,2.6246,2.5985,2.5947,2.5924,2.6138,2.6134,2.6131,2.5985,0,2.6664,2.6624,2.6574,2.6563,2.6545,2.6488,2.6524,2.65,2.6532,2.6549,2.6483,2.6487,2.646,2.6443,2.6472,2.6362,2.6384,2.6432,2.6504,2.638,2.6332,2.6313,2.6573,2.6575,2.6577,2.6578,0,0,2.6826,2.6771,2.6817,2.6768,2.6755,2.6825,2.676,2.6756,2.6744,2.6732,2.6774,2.6704,2.6705,2.662,2.6585,2.6574,2.6557,2.6598,2.6439,2.6424,2.6409,2.6358,2.6337,2.6582,2.6583,2.6583,2.6584,0,2.6912,2.6917,2.6855,2.6853,2.6852,2.6874,2.6858,2.6869,2.6876,2.6813,2.6869,2.6834,2.6776,2.6769,2.6758,2.6611,2.6653,2.66,2.6509,2.6458,2.644,2.6424,2.6369,2.6349,2.6589,2.6588,2.6588,0,2.7059,2.7068,2.7042,2.7019,2.7018,2.6978,2.7065,2.7019,2.6989,2.7064,2.7,2.7007,2.7,2.6917,2.6881,2.6917,2.6738,2.6801,2.6789,2.6785,2.6737,2.6715,2.6696,2.6953,2.6954,2.6955,0,0,2.7128,2.7092,2.7115,2.704,2.7036,2.7067,2.705,2.708,2.7075,2.7072,2.7081,2.7072,2.704,2.7017,2.6988,2.6892,2.6893,2.6844,2.6827,2.6813,2.6801,2.6749,2.6728,2.6959,2.6959,2.6959,0,0,2.716,2.7185,2.7219,2.7137,2.7131,2.7147,2.7098,2.7139,2.7117,2.7127,2.7173,2.7173,2.7096,2.7099,2.7153,2.7013,2.7084,2.7072,2.7014,2.6992,2.6975,2.6975,2.7238,0,0,0,0,0,2.7267,2.7183,2.7213,2.7205,2.7174,2.7131,2.7127,2.7164,2.7214,2.7175,2.7189,2.7236,2.7138,2.7186,2.7176,2.7114,2.7014,2.7005,2.6995,2.6897,2.6875,2.6856,0,0,0,0,0,0,2.7264,2.7254,2.7215,2.7227,2.7221,2.7134,2.7227,2.7235,2.7219,2.723,2.7232,2.7236,2.7266,2.7194,2.7184,2.7125,2.7242,2.7011,2.7002,2.6995,2.689,2.6871,2.6855,0,0,0,0,0,2.7262,2.7254,2.7195,2.7229,2.7223,2.7253,2.723,2.7238,2.7226,2.7247,2.7253,2.7256,2.7263,2.7257,2.7188,2.7129,2.7249,2.7245,2.7005,2.6999,2.6993,2.6881,0,0,0,0,0,0,2.726,2.7259,2.7195,2.7195,2.7264,2.7259,2.7259,2.724,2.7246,2.7251,2.7274,2.7282,2.726,2.7256,2.7251,2.7128,2.7255,2.7251,2.7249,2.7,2.6995,2.699,0,0,0,0,0,0,2.7264,2.7258,2.7195,2.7237,2.7242,2.7263,2.7264,2.7211,2.7245,2.7272,2.7279,2.7277,2.7266,2.7255,2.7251,2.7167,2.726,2.7256,2.7253,2.7252,2.6996,2.6992,0,0,0,0,0,0,2.7262,2.7257,2.7237,2.7241,2.7245,2.7243,2.7217,2.7183,2.7284,2.7271,2.7294,2.7298,2.7263,2.7261,2.7251,2.7167,2.7167,2.7259,2.7257,2.7255,2.7254,0,0,0,0,0,0,0,2.7261,2.7284,2.7198,2.7244,2.7248,2.7191,2.7191,2.7191,2.7285,2.7289,2.7293,2.7296,2.7281,2.7277,2.7273,2.7168,0,0,2.726,2.7258,0,0,0,0,0,0,0,0,2.7287,2.7285,2.7198,2.7198,2.7198,2.7191,2.7191,2.7191,2.7285,2.7289,2.7292,2.7295,2.728,2.7277,2.7273,0,0,0,0,0,0,0,0,0,0,0,0,0,0,0,2.7198,2.7198,0,2.7191,2.7191,2.7191,2.7286,2.7289,2.7291,2.7294,2.7279,2.7276,2.7273,0,0,0,0,0,0,0,0,0,0,0,0,0,0,0,0,0,0,0,0,0,0,0,0,0,0,0,0,0,0,0,0,0,0,0,0,0,0,0,0,0,0,0,0,0,0,0,0,0,0,0,0,0,0,0,0,0,0,0,0,0,0,0,0,0,0,0,0,0]}]]]